Regional Weather Roundup
Issued by NWS

Home | Current Version | Previous Version | Text Only | Print | Product List | Glossary On
Versions: 1 2 3 4 5 6 7 8 9 10 11 12 13 14 15 16 17 18 19 20 21 22 23 24 25 26 27 28 29 30 31 32 33 34 35 36 37 38 39 40 41 42 43 44 45 46 47 48 49 50
000
ASUS43 KLMK 290702
RWRKY
KENTUCKY REGIONAL WEATHER ROUNDUP
NATIONAL WEATHER SERVICE LOUISVILLE KY
300 AM EDT FRI JUL 29 2016

NOTE "FAIR" INDICATES FEW OR NO CLOUDS BELOW 12,000 FEET
WITH NO SIGNIFICANT WEATHER AND/OR OBSTRUCTIONS TO VISIBILITY.

KYZ001>023-026-027-061>063-070>075-290800-
WESTERN AND SOUTH CENTRAL KENTUCKY

CITY           SKY/WX    TMP DP  RH WIND       PRES   REMARKS
PADUCAH        CLOUDY    74  71  91 SW3       29.91F
HENDERSON      PTCLDY    72  68  88 CALM      29.89F
OWENSBORO      MOCLDY    73  72  97 CALM      29.91S
HOPKINSVILLE   NOT AVBL
BOWLING GREEN  CLOUDY    73  70  90 S3        29.92S
GLASGOW        NOT AVBL
$$

KYZ024-025-028>034-038-045-046-053-290800-
NORTH CENTRAL KENTUCKY

CITY           SKY/WX    TMP DP  RH WIND       PRES   REMARKS
LOUISVILLE/SDF CLOUDY    76  72  87 SW5       29.90S
LOUISVILLE/LOU CLOUDY    77  71  82 NW5       29.91S
FORT KNOX      NOT AVBL
$$

KYZ035>037-039>044-047>052-055>060-089>105-290800-
NORTHEAST KENTUCKY

CITY           SKY/WX    TMP DP  RH WIND       PRES   REMARKS
LEXINGTON        N/A     71  69  93 S5        29.93F
COVINGTON      FOG       74  74 100 W6        29.91F VSB 1
FRANKFORT      PTCLDY    72  69  90 SW5       29.91F
$$

KYZ054-064>069-076>088-106>120-290800-
SOUTHEAST KENTUCKY

CITY           SKY/WX    TMP DP  RH WIND       PRES   REMARKS
JACKSON        FOG       69  67  93 CALM      29.97S VSB 1/2
LONDON         FOG       70  68  93 S3        29.97F VSB 1/2
SOMERSET       CLOUDY    68  68 100 CALM      29.97F FOG
MIDDLESBORO    CLOUDY    68  68 100 CALM      30.00R FOG
MONTICELLO     PTSUNNY  N/A N/A N/A W12       29.98S
$$





USA.gov is the U.S. government's official web portal to all federal, state and local government web resources and services.